GW5791 Weather Reports


time (UTC)temp
C
wind
direction
speed
KPH
gust
KPH
rain 1hr
cm
rain 24hr
cm
rain mn
cm
humidity
%
barometer
mb
20260508044104 13 99 1.6 4.8 0.00 0.00 0.00 27 831.7
20260508043604 14 101 1.6 3.2 0.00 0.00 0.00 27 831.7
20260508043104 14 86 1.6 4.8 0.00 0.00 0.00 27 831.7
20260508042604 14 90 1.6 4.8 0.00 0.00 0.00 27 831.7
20260508042104 14 97 1.6 3.2 0.00 0.00 0.00 27 831.7
20260508041605 15 79 1.6 3.2 0.00 0.00 0.00 26 831.7
20260508041104 15 85 1.6 4.8 0.00 0.00 0.00 26 831.7
20260508040604 15 93 1.6 3.2 0.00 0.00 0.00 26 831.6
20260508040104 15 110 1.6 4.8 0.00 0.00 0.00 26 831.6
20260508035604 15 78 1.6 3.2 0.00 0.00 0.00 25 831.6
20260508035104 16 95 1.6 3.2 0.00 0.00 0.00 25 831.6
20260508034604 16 79 1.6 4.8 0.00 0.00 0.00 23 831.5
20260508034104 16 78 1.6 4.8 0.00 0.00 0.00 23 831.5
20260508033604 16 241 1.6 4.8 0.00 0.00 0.00 24 831.4
20260508033103 16 122 1.6 4.8 0.00 0.00 0.00 23 831.3
20260508032604 16 140 1.6 3.2 0.00 0.00 0.00 21 831.2
20260508032104 16 68 1.6 3.2 0.00 0.00 0.00 21 831.1
20260508031604 16 118 1.6 3.2 0.00 0.00 0.00 21 831.0
20260508031104 17 183 1.6 8.0 0.00 0.00 0.00 21 830.9
20260508030604 17 343 1.6 8.0 0.00 0.00 0.00 20 830.9
20260508030104 17 125 0.0 3.2 0.00 0.00 0.00 20 830.8
20260508025604 17 80 0.0 1.6 0.00 0.00 0.00 19 830.7
20260508025104 17 344 1.6 8.0 0.00 0.00 0.00 20 830.8
20260508024604 18 44 1.6 4.8 0.00 0.00 0.00 20 830.7
20260508024104 18 48 0.0 3.2 0.00 0.00 0.00 19 830.7
20260508023104 19 51 1.6 3.2 0.00 0.00 0.00 18 830.5
20260508022604 20 41 1.6 3.2 0.00 0.00 0.00 16 830.5
20260508022104 20 13 0.0 3.2 0.00 0.00 0.00 15 830.4
20260508021604 20 191 1.6 4.8 0.00 0.00 0.00 15 830.3
20260508021104 20 192 1.6 3.2 0.00 0.00 0.00 15 830.3
20260508020604 21 191 0.0 3.2 0.00 0.00 0.00 15 830.2
20260508014603 21 215 4.8 12.9 0.00 0.00 0.00 13 830.1
20260508014104 21 217 4.8 14.5 0.00 0.00 0.00 13 830.0
20260508013104 22 206 3.2 11.3 0.00 0.00 0.00 13 830.0
20260508012603 22 198 3.2 8.0 0.00 0.00 0.00 13 829.9
20260508012104 22 192 4.8 8.0 0.00 0.00 0.00 13 829.9
20260508011604 22 192 4.8 11.3 0.00 0.00 0.00 13 829.8
20260508011104 22 241 4.8 9.7 0.00 0.00 0.00 13 829.8
20260508010604 22 208 4.8 9.7 0.00 0.00 0.00 13 829.9
20260508010104 22 197 4.8 8.0 0.00 0.00 0.00 12 829.8
20260508005604 22 179 4.8 9.7 0.00 0.00 0.00 12 829.8
20260508005103 22 178 6.4 9.7 0.00 0.00 0.00 12 829.8
20260508004604 22 187 4.8 11.3 0.00 0.00 0.00 12 829.8
20260508004104 23 245 4.8 11.3 0.00 0.00 0.00 12 829.8
20260508003604 23 228 4.8 11.3 0.00 0.00 0.00 12 829.8
20260508003103 23 264 4.8 11.3 0.00 0.00 0.00 12 829.8
20260508002604 23 222 3.2 8.0 0.00 0.00 0.00 12 829.8
20260508002104 23 259 4.8 4.8 0.00 0.00 0.00 12 829.8
20260508001603 23 238 3.2 8.0 0.00 0.00 0.00 11 829.9
20260508001104 23 193 4.8 11.3 0.00 0.00 0.00 11 829.9
20260508000603 23 220 3.2 11.3 0.00 0.00 0.00 11 829.9
20260508000104 23 307 1.6 4.8 0.00 0.00 0.00 11 829.9
20260507234603 23 284 4.8 9.7 0.00 0.00 0.00 11 830.0
20260507234104 23 323 3.2 8.0 0.00 0.00 0.00 12 830.0
20260507233606 23 344 1.6 4.8 0.00 0.00 0.00 11 830.1
20260507233105 22 211 4.8 9.7 0.00 0.00 0.00 11 830.1
20260507232605 23 206 4.8 11.3 0.00 0.00 0.00 11 830.1
20260507232105 23 225 8.0 12.9 0.00 0.00 0.00 11 830.1
20260507231605 23 217 4.8 11.3 0.00 0.00 0.00 11 830.2
20260507231105 23 234 4.8 9.7 0.00 0.00 0.00 11 830.2
20260507230605 22 41 1.6 4.8 0.00 0.00 0.00 11 830.3
20260507225605 22 261 6.4 12.9 0.00 0.00 0.00 11 830.4
20260507224105 22 34 3.2 14.5 0.00 0.00 0.00 11 830.5
20260507223605 22 239 4.8 12.9 0.00 0.00 0.00 12 830.5
20260507223105 22 333 6.4 11.3 0.00 0.00 0.00 11 830.5
20260507222105 22 192 8.0 19.3 0.00 0.00 0.00 12 830.7
20260507220605 22 299 3.2 8.0 0.00 0.00 0.00 14 830.9
20260507220105 21 351 4.8 14.5 0.00 0.00 0.00 14 831.0
20260507215605 21 216 8.0 12.9 0.00 0.00 0.00 12 831.0
20260507215105 21 231 6.4 20.9 0.00 0.00 0.00 13 831.1
20260507214605 21 252 4.8 20.9 0.00 0.00 0.00 14 831.2
20260507214105 21 251 11.3 20.9 0.00 0.00 0.00 14 831.3
20260507213605 21 209 4.8 11.3 0.00 0.00 0.00 14 831.3
20260507213105 21 240 8.0 20.9 0.00 0.00 0.00 15 831.5
20260507211605 21 337 4.8 9.7 0.00 0.00 0.00 15 831.8
20260507211105 20 276 4.8 16.1 0.00 0.00 0.00 16 831.8
20260507210105 20 275 8.0 12.9 0.00 0.00 0.00 16 831.9
20260507205105 20 238 6.4 16.1 0.00 0.00 0.00 16 832.0
20260507204605 20 298 6.4 14.5 0.00 0.00 0.00 16 832.2
20260507204105 20 311 8.0 14.5 0.00 0.00 0.00 17 832.2
20260507203604 20 288 3.2 11.3 0.00 0.00 0.00 16 832.3
20260507203105 20 344 4.8 11.3 0.00 0.00 0.00 18 832.4
20260507202605 20 296 8.0 16.1 0.00 0.00 0.00 17 832.4
20260507201605 19 146 4.8 11.3 0.00 0.00 0.00 17 832.5
20260507201106 19 42 6.4 12.9 0.00 0.00 0.00 18 832.6
20260507200604 18 14 9.7 14.5 0.00 0.00 0.00 19 832.6
20260507200106 19 294 9.7 19.3 0.00 0.00 0.00 18 832.7
20260507195605 19 329 8.0 12.9 0.00 0.00 0.00 19 832.8
20260507195105 18 184 4.8 14.5 0.00 0.00 0.00 19 832.8
20260507194105 18 227 4.8 11.3 0.00 0.00 0.00 22 832.9
20260507193604 18 272 3.2 9.7 0.00 0.00 0.00 23 833.0
20260507192605 18 310 3.2 11.3 0.00 0.00 0.00 23 833.2
20260507192105 17 23 6.4 12.9 0.00 0.00 0.00 24 833.3
20260507191605 18 244 4.8 14.5 0.00 0.00 0.00 24 833.4
20260507191105 18 253 8.0 16.1 0.00 0.00 0.00 24 833.4
20260507190605 18 220 4.8 12.9 0.00 0.00 0.00 23 833.5
20260507190105 17 168 4.8 19.3 0.00 0.00 0.00 24 833.5
20260507185605 17 211 4.8 19.3 0.00 0.00 0.00 24 833.6
20260507185105 17 258 8.0 16.1 0.00 0.00 0.00 25 833.7
20260507184604 17 282 3.2 11.3 0.00 0.00 0.00 25 833.8
20260507184105 17 12 4.8 14.5 0.00 0.00 0.00 25 833.8
20260507183605 17 351 4.8 12.9 0.00 0.00 0.00 26 834.0
20260507183105 16 294 4.8 12.9 0.00 0.00 0.00 26 834.0
20260507182104 16 296 4.8 11.3 0.00 0.00 0.00 26 834.1
20260507181605 16 77 8.0 14.5 0.00 0.00 0.00 26 834.2
20260507181105 16 328 4.8 11.3 0.00 0.00 0.00 27 834.2
20260507180605 16 289 4.8 11.3 0.00 0.00 0.00 27 834.2
20260507173605 15 299 4.8 11.3 0.00 0.00 0.00 31 834.5
20260507172605 15 318 4.8 12.9 0.00 0.00 0.00 32 834.7
20260507172105 15 350 4.8 11.3 0.00 0.00 0.00 29 834.7
20260507171605 15 350 3.2 8.0 0.00 0.00 0.00 30 834.8
20260507171104 14 268 4.8 9.7 0.00 0.00 0.00 31 834.9
20260507170605 14 281 3.2 9.7 0.00 0.00 0.00 31 835.0
20260507165605 14 293 6.4 12.9 0.00 0.00 0.00 31 835.0
20260507165105 13 329 4.8 11.3 0.00 0.00 0.00 32 835.0
20260507164605 13 57 3.2 11.3 0.00 0.00 0.00 35 835.1
20260507164104 13 16 3.2 12.9 0.00 0.00 0.00 35 835.1
20260507163605 13 329 9.7 14.5 0.00 0.00 0.00 36 835.1
20260507163104 13 264 1.6 11.3 0.00 0.00 0.00 36 835.2
20260507162105 12 306 4.8 12.9 0.00 0.00 0.00 39 835.2
20260507161605 12 264 4.8 12.9 0.00 0.00 0.00 40 835.3
20260507161105 12 279 4.8 11.3 0.00 0.00 0.00 41 835.4
20260507160605 12 68 4.8 11.3 0.00 0.00 0.00 41 835.4
20260507160105 12 317 4.8 9.7 0.00 0.00 0.00 42 835.5
20260507155105 11 283 4.8 9.7 0.00 0.00 0.00 45 835.5
20260507154605 11 10 6.4 12.9 0.00 0.00 0.00 45 835.6
20260507153605 11 309 4.8 11.3 0.00 0.00 0.00 45 835.7
20260507153105 11 257 3.2 9.7 0.00 0.00 0.00 47 835.7
20260507152605 10 89 1.6 8.0 0.00 0.00 0.00 47 835.7
20260507151605 10 316 4.8 12.9 0.00 0.00 0.00 50 835.8
20260507150605 9 311 4.8 11.3 0.00 0.00 0.00 49 835.8
20260507150104 9 6 4.8 11.3 0.00 0.00 0.00 51 835.9
20260507145604 8 324 4.8 9.7 0.00 0.00 0.00 52 835.9
20260507145105 8 36 3.2 9.7 0.00 0.00 0.00 53 835.9
20260507144605 8 331 3.2 8.0 0.00 0.00 0.00 53 836.0
20260507144105 8 323 4.8 8.0 0.00 0.00 0.00 54 836.0
20260507143604 7 321 3.2 4.8 0.00 0.00 0.00 53 836.0
20260507141604 7 28 4.8 11.3 0.00 0.00 0.00 58 836.0
20260507141105 7 354 3.2 11.3 0.00 0.00 0.00 59 836.0
20260507140605 6 322 4.8 8.0 0.00 0.00 0.00 59 836.0
20260507135605 6 262 3.2 4.8 0.00 0.00 0.00 62 836.0
20260507135105 6 296 1.6 4.8 0.00 0.00 0.00 63 836.0
20260507134605 6 257 3.2 9.7 0.00 0.00 0.00 62 836.0
20260507134104 5 269 1.6 4.8 0.00 0.00 0.00 60 835.9
20260507133105 5 332 3.2 4.8 0.00 0.00 0.00 60 835.9
20260507132604 5 281 3.2 4.8 0.00 0.00 0.00 54 835.9
20260507131605 4 151 3.2 3.2 0.00 0.00 0.00 55 835.8
20260507131104 3 186 0.0 3.2 0.00 0.00 0.00 57 835.9
20260507130605 3 21 3.2 8.0 0.00 0.00 0.00 60 835.8
20260507130105 3 355 4.8 9.7 0.00 0.00 0.00 63 835.8
20260507125605 2 337 4.8 8.0 0.00 0.00 0.00 64 835.8
20260507125104 2 322 0.0 3.2 0.00 0.00 0.00 66 835.8
20260507124604 2 328 1.6 1.6 0.00 0.00 0.00 68 835.8
20260507124105 2 130 0.0 1.6 0.00 0.00 0.00 68 835.7
20260507123605 2 100 3.2 4.8 0.00 0.00 0.00 69 835.7
20260507123105 2 322 1.6 3.2 0.00 0.00 0.00 71 835.6
20260507122604 2 82 1.6 1.6 0.00 0.00 0.00 71 835.6
20260507122105 2 143 0.0 1.6 0.00 0.00 0.00 71 835.5
20260507121604 2 68 1.6 3.2 0.00 0.00 0.00 70 835.5
20260507121104 2 57 1.6 3.2 0.00 0.00 0.00 70 835.5
20260507120604 2 25 1.6 3.2 0.00 0.00 0.00 71 835.6
20260507115604 2 46 1.6 3.2 0.00 0.00 0.00 74 835.5
20260507114105 3 47 1.6 3.2 0.00 0.00 0.00 71 835.5
20260507113104 3 62 1.6 3.2 0.00 0.00 0.00 71 835.5
20260507112604 3 334 1.6 3.2 0.00 0.00 0.00 70 835.6
20260507111604 3 191 1.6 3.2 0.00 0.00 0.00 69 835.6
20260507111104 3 135 0.0 3.2 0.00 0.00 0.00 68 835.6
20260507110605 3 182 3.2 3.2 0.00 0.00 0.00 67 835.6
20260507110104 3 131 1.6 3.2 0.00 0.00 0.00 66 835.6
20260507105604 3 35 0.0 3.2 0.00 0.00 0.00 65 835.6
20260507105104 3 246 1.6 1.6 0.00 0.00 0.00 65 835.6
20260507104604 3 353 0.0 1.6 0.00 0.00 0.00 61 835.6
20260507103604 4 39 3.2 3.2 0.00 0.00 0.00 58 835.6
20260507103104 5 39 1.6 3.2 0.00 0.00 0.00 58 835.6
20260507102604 5 316 1.6 3.2 0.00 0.00 0.00 56 835.6
20260507101605 5 35 0.0 3.2 0.00 0.00 0.00 52 835.5
20260507101104 6 282 3.2 3.2 0.00 0.00 0.00 51 835.5
20260507100604 6 272 1.6 8.0 0.00 0.00 0.00 48 835.5
20260507100104 5 195 3.2 8.0 0.00 0.00 0.00 47 835.4
20260507095604 5 256 3.2 4.8 0.00 0.00 0.00 46 835.4
20260507095104 5 288 3.2 4.8 0.00 0.00 0.00 46 835.4
20260507094605 5 202 3.2 4.8 0.00 0.00 0.00 48 835.4
20260507094104 5 143 3.2 4.8 0.00 0.00 0.00 48 835.4
20260507093604 5 297 1.6 1.6 0.00 0.00 0.00 46 835.3
20260507093104 5 94 0.0 4.8 0.00 0.00 0.00 45 835.4
20260507092104 6 28 1.6 3.2 0.00 0.00 0.00 46 835.4
20260507091104 6 132 1.6 3.2 0.00 0.00 0.00 46 835.4
20260507090605 6 132 3.2 4.8 0.00 0.00 0.00 45 835.4
20260507085104 7 180 3.2 3.2 0.00 0.00 0.00 40 835.3
20260507084605 7 133 1.6 3.2 0.00 0.00 0.00 39 835.2
20260507084104 7 186 1.6 4.8 0.00 0.00 0.00 38 835.2
20260507083604 7 198 1.6 3.2 0.00 0.00 0.00 38 835.2
20260507083104 7 127 1.6 4.8 0.00 0.00 0.00 38 835.2
20260507082605 7 61 3.2 9.7 0.00 0.00 0.00 38 835.1
20260507082104 7 24 3.2 8.0 0.00 0.00 0.00 38 835.1
20260507081604 7 62 3.2 8.0 0.00 0.00 0.00 39 835.2
20260507080604 7 62 1.6 1.6 0.00 0.00 0.00 37 835.0
20260507080104 7 121 0.0 1.6 0.00 0.00 0.00 36 835.1
20260507075604 8 174 1.6 3.2 0.00 0.00 0.00 38 835.0
20260507074604 8 347 3.2 4.8 0.00 0.00 0.00 36 835.0
20260507074105 8 330 3.2 4.8 0.00 0.00 0.00 34 835.0
20260507073604 8 27 1.6 3.2 0.00 0.00 0.00 37 835.1
20260507073104 8 351 3.2 4.8 0.00 0.00 0.00 35 835.0
20260507072605 8 45 1.6 4.8 0.00 0.00 0.00 35 835.0
20260507072104 8 56 1.6 3.2 0.00 0.00 0.00 36 835.0
20260507071604 8 36 1.6 3.2 0.00 0.00 0.00 35 834.9
20260507071104 9 65 1.6 4.8 0.00 0.00 0.00 34 834.8
20260507065604 9 51 3.2 9.7 0.00 0.00 0.00 33 834.6
20260507065104 9 18 4.8 12.9 0.00 0.00 0.00 34 834.6
20260507064604 9 23 4.8 9.7 0.00 0.00 0.00 36 834.6
20260507064104 9 339 3.2 8.0 0.00 0.00 0.00 37 834.6
20260507063604 9 329 4.8 9.7 0.00 0.00 0.00 38 834.6
20260507063104 8 337 4.8 8.0 0.00 0.00 0.00 39 834.6
20260507062604 8 20 3.2 4.8 0.00 0.00 0.00 43 834.7
20260507062104 9 32 1.6 4.8 0.00 0.00 0.00 44 834.7
20260507061603 9 10 1.6 3.2 0.00 0.00 0.00 42 834.7
20260507060604 10 319 0.0 3.2 0.00 0.00 0.00 40 834.7
20260507060104 10 11 1.6 9.7 0.00 0.00 0.00 39 834.6
20260507055604 10 47 3.2 8.0 0.00 0.00 0.00 40 834.5
20260507055104 10 57 3.2 8.0 0.00 0.00 0.00 41 834.6
20260507054604 10 55 3.2 4.8 0.00 0.00 0.00 42 834.6
20260507054104 10 36 1.6 4.8 0.00 0.00 0.00 42 834.5
20260507053104 11 41 1.6 4.8 0.00 0.00 0.00 43 834.5
20260507052604 11 34 1.6 4.8 0.00 0.00 0.00 43 834.5
20260507051604 11 43 3.2 8.0 0.00 0.00 0.00 44 834.4
20260507050604 11 41 3.2 4.8 0.00 0.00 0.00 44 834.4
20260507050104 12 41 4.8 8.0 0.00 0.00 0.00 43 834.2
20260507045604 12 46 4.8 9.7 0.00 0.00 0.00 43 834.2
20260507045104 12 32 4.8 8.0 0.00 0.00 0.00 43 834.2
20260507044604 12 37 3.2 8.0 0.00 0.00 0.00 42 834.1